This demonstration page uses our WeatherBlox Daily Observations layout. Learn more.

Left ArrowRight Arrow

41.86663, -103.66717

Hourly Observations for March 3, 2018

Temp ( °F °C ) Dew Point ( °F °C ) Humidity (%) Winds ( mph kmh ) Pressure ( in mb ) Visibility ( mi km ) Precip ( " mm )
12:53 am 00:53 Clear 28 -2.2 25 -3.9 88 88 NNW 6 9 29.86 1011 10 16 N/A
1:53 am 01:53 Clear 27 -2.8 24 -4.4 89 89 NW 7 11 29.86 1011 10 16 N/A
2:53 am 02:53 Clear 24 -4.4 22 -5.6 91 91 NNW 6 9 29.84 1011 10 16 N/A
3:53 am 03:53 Clear 29 -1.7 24 -4.4 82 82 W 10 17 29.84 1010 10 16 N/A
4:53 am 04:53 Clear 25 -3.9 22 -5.6 88 88 NNW 7 11 29.86 1011 10 16 N/A
5:53 am 05:53 Clear 27 -2.8 23 -5 85 85 NNW 6 9 29.89 1012 10 16 N/A
6:53 am 06:53 Sunny 26 -3.3 23 -5 88 88 NW 5 7 29.93 1014 10 16 N/A
7:53 am 07:53 Sunny 32 undefined 26 -3.3 79 79 WNW 6 9 29.94 1014 10 16 N/A
8:53 am 08:53 Sunny 39 3.9 29 -1.7 67 67 N N/A 29.92 1013 10 16 N/A
9:53 am 09:53 Sunny 49 9.4 29 -1.7 46 46 N 5 7 29.91 1013 10 16 N/A
10:53 am 10:53 Sunny 54 12.2 27 -2.8 35 35 N N/A 29.88 1012 10 16 N/A
11:53 am 11:53 Sunny 59 15 28 -2.2 31 31 E 8 13 29.85 1011 10 16 N/A
12:53 pm 12:53 Sunny 64 17.8 30 -1.1 28 28 E 13 20 29.81 1010 10 16 N/A
1:53 pm 13:53 Sunny 69 20.6 27 -2.8 21 21 ESE 18 30 29.78 1008 10 16 N/A
2:53 pm 14:53 Sunny 70 21.1 16 -8.9 12 12 SE 18 30 29.76 1008 10 16 N/A
3:53 pm 15:53 Sunny 69 20.6 19 -7.2 15 15 SE 14 22 29.74 1007 10 16 N/A
4:53 pm 16:53 Sunny 66 18.9 22 -5.6 19 19 ESE 13 20 29.75 1007 10 16 N/A
5:53 pm 17:53 Clear 54 12.2 27 -2.8 35 35 ESE 13 20 29.77 1008 10 16 N/A
6:53 pm 18:53 Clear 50 10 27 -2.8 41 41 E 14 22 29.80 1009 10 16 N/A
7:53 pm 19:53 Clear 42 5.6 29 -1.7 60 60 ESE 10 17 29.80 1009 10 16 N/A
8:53 pm 20:53 Clear 43 6.1 31 -0.6 63 63 ESE 10 17 29.77 1008 10 16 N/A
9:53 pm 21:53 Clear 42 5.6 31 -0.6 65 65 E 13 20 29.74 1007 10 16 N/A
10:53 pm 22:53 Clear 37 2.8 31 -0.6 79 79 NE 9 15 29.73 1007 10 16 N/A
11:53 pm 23:53 Clear 35 1.7 30 -1.1 82 82 NNE 13 20 29.71 1006 10 16 N/A

Powered by AerisWeather